Location: Aciu?a
(46.2833°N, 22.4500°E)
Time: 04:40:02
(UTC+00:00)

CORIOLIS - Pass Details

Date: 25 October 2021
Orbit: 819 x 838 km, 98.7° (Epoch: 04 December)

Event Time Altitude Azimuth Distance (km) Brightness Sun altitude
Rises 15:51:05 0° 162° (SSE) 3,339 7.3 -4.9°
Reaches altitude 10° 15:53:25 10° 162° (SSE) 2,409 6.5 -5.3°
Maximum altitude 15:58:45 85° 75° (ENE) 829 4.2 -6.2°
Drops below altitude 10° 16:04:08 10° 347° (NNW) 2,425 6.6 -7.2°
Sets 16:06:29 0° 347° (NNW) 3,362 7.4 -7.6°
